Weather History for Rush City, MN

Change the Weather History Date:

Tuesday, November 19, 2013

  Actual Average (KCBG) Record (KCBG)
Temperature  
Mean Temperature 28 °F -  
Max Temperature 41 °F 36 °F 57 °F (2012)
Min Temperature 14 °F 21 °F 3 °F (1997)
Degree Days  
Heating Degree Days 38    
Moisture  
Dew Point 21 °F    
Average Humidity 73    
Maximum Humidity 93    
Minimum Humidity 53    
Precipitation  
Precipitation 0.00 in - - ()
Sea Level Pressure  
Sea Level Pressure 30.08 in    
Wind  
Wind Speed 6 mph (SE)    
Max Wind Speed 18 mph    
Max Gust Speed 26 mph    
Visibility 10 miles    
Events      
Averages and records for this station are not official NWS values.
T = Trace of Precipitation, MM = Missing Value Source: NWS Daily Summary

Daily Weather History Graph

Daily Weather History Graph

Search for Another Location

Airport:

Trip Planner

Search our weather history database for the weather conditions in past years. The results will help you decide how hot, cold, wet, or windy it might be!

Date:

Astronomy

Nov. 19, 2013 Rise Set
Actual Time 7:17 AM CST 4:36 PM CST
Civil Twilight 6:44 AM CST 5:09 PM CST
Nautical Twilight 6:08 AM CST 5:45 PM CST
Astronomical Twilight 5:32 AM CST 6:21 PM CST
Moon 6:27 PM CST 8:57 AM CST
Length of Visible Light 10h 24m
Length of Day
9h 19m
Waning Gibbous, 96% of the Moon is Illuminated
Nov 19
Waning Gibbous
Nov 25
Last Quarter
Dec 2
New
Dec 9
First Quarter
Dec 17
Full

Hourly Weather History & Observations

Time (CST) Temp. Windchill Dew Point Humidity Pressure Visibility Wind Dir Wind Speed Gust Speed Precip Events Conditions
12:15 AM 16.3 °F - 14.7 °F 93% 30.25 in 10.0 mi Calm Calm - N/A   Clear
12:35 AM 16.3 °F - 14.5 °F 93% 30.24 in 10.0 mi Calm Calm - N/A   Clear
12:54 AM 16.7 °F - 14.9 °F 93% 30.23 in 10.0 mi Calm Calm - N/A   Clear
1:15 AM 16.5 °F - 14.7 °F 93% 30.24 in 10.0 mi Calm Calm - N/A   Clear
1:35 AM 16.3 °F - 14.7 °F 93% 30.24 in 10.0 mi Calm Calm - N/A   Clear
1:54 AM 15.3 °F - 13.5 °F 93% 30.26 in 10.0 mi Calm Calm - N/A   Clear
2:15 AM 15.8 °F - 14.0 °F 93% 30.26 in 10.0 mi Calm Calm - N/A   Clear
2:35 AM 16.0 °F - 14.2 °F 93% 30.26 in 10.0 mi Calm Calm - N/A   Clear
2:54 AM 14.5 °F - 12.4 °F 91% 30.26 in 10.0 mi Calm Calm - N/A   Clear
3:15 AM 15.3 °F - 13.5 °F 93% 30.26 in 10.0 mi Calm Calm - N/A   Clear
3:35 AM 15.3 °F - 13.5 °F 93% 30.26 in 10.0 mi Calm Calm - N/A   Clear
3:54 AM 15.4 °F 9.8 °F 13.6 °F 93% 30.26 in 10.0 mi ESE 3.5 mph - N/A   Clear
4:15 AM 16.3 °F 10.8 °F 14.5 °F 93% 30.25 in 10.0 mi SE 3.5 mph - N/A   Clear
4:35 AM 16.7 °F 9.6 °F 14.9 °F 93% 30.25 in 10.0 mi SE 4.6 mph - N/A   Clear
4:55 AM 17.2 °F 10.2 °F 15.4 °F 93% 30.25 in 10.0 mi ESE 4.6 mph - N/A   Clear
5:15 AM 16.7 °F 9.6 °F 14.9 °F 93% 30.24 in 10.0 mi East 4.6 mph - N/A   Clear
5:35 AM 17.6 °F 12.3 °F 15.6 °F 92% 30.24 in 10.0 mi ESE 3.5 mph - N/A   Clear
5:55 AM 17.6 °F 10.7 °F 15.6 °F 92% 30.23 in 10.0 mi East 4.6 mph - N/A   Clear
6:15 AM 18.5 °F 9.3 °F 16.5 °F 92% 30.22 in 10.0 mi East 6.9 mph - N/A   Clear
6:35 AM 18.5 °F 10.4 °F 16.2 °F 91% 30.22 in 10.0 mi ESE 5.8 mph - N/A   Clear
6:55 AM 18.7 °F 10.6 °F 16.2 °F 90% 30.21 in 10.0 mi ESE 5.8 mph - N/A   Clear
7:15 AM 18.9 °F 12.1 °F 16.3 °F 90% 30.20 in 10.0 mi ESE 4.6 mph - N/A   Clear
7:34 AM 18.5 °F 11.7 °F 15.8 °F 89% 30.21 in 10.0 mi ESE 4.6 mph - N/A   Clear
7:55 AM 19.4 °F 14.3 °F 16.7 °F 89% 30.19 in 10.0 mi ESE 3.5 mph - N/A   Clear
8:15 AM 20.3 °F - 17.6 °F 89% 30.19 in 10.0 mi Calm Calm - N/A   Clear
8:34 AM 21.4 °F 15.1 °F 18.9 °F 90% 30.19 in 10.0 mi ESE 4.6 mph - N/A   Clear
8:54 AM 22.8 °F 15.5 °F 19.9 °F 89% 30.18 in 10.0 mi ESE 5.8 mph - N/A   Clear
9:15 AM 24.3 °F 18.4 °F 21.4 °F 89% 30.17 in 10.0 mi ESE 4.6 mph - N/A   Clear
9:35 AM 27.1 °F 23.2 °F 23.2 °F 85% 30.16 in 10.0 mi ESE 3.5 mph - N/A   Clear
9:54 AM 28.2 °F 20.2 °F 23.5 °F 83% 30.16 in 10.0 mi SE 8.1 mph - N/A   Clear
10:15 AM 29.7 °F 22.0 °F 23.0 °F 76% 30.15 in 10.0 mi SE 8.1 mph - N/A   Clear
10:35 AM 30.4 °F 23.6 °F 22.8 °F 73% 30.14 in 10.0 mi SE 6.9 mph - N/A   Clear
10:54 AM 32.0 °F 24.8 °F 22.6 °F 68% 30.13 in 10.0 mi ESE 8.1 mph - N/A   Clear
11:15 AM 33.1 °F 23.9 °F 22.3 °F 65% 30.12 in 10.0 mi SE 12.7 mph 19.6 mph N/A   Clear
11:35 AM 33.4 °F 23.9 °F 21.6 °F 62% 30.10 in 10.0 mi SE 13.8 mph 18.4 mph N/A   Clear
11:54 AM 34.9 °F 25.7 °F 21.4 °F 58% 30.09 in 10.0 mi SE 13.8 mph 19.6 mph N/A   Clear
12:15 PM 35.4 °F 26.4 °F 21.2 °F 56% 30.07 in 10.0 mi SE 13.8 mph 20.7 mph N/A   Clear
12:35 PM 36.0 °F 28.5 °F 21.7 °F 56% 30.06 in 10.0 mi SSE 10.4 mph 21.9 mph N/A   Clear
12:55 PM 37.2 °F 28.7 °F 22.6 °F 56% 30.05 in 10.0 mi SE 13.8 mph 20.7 mph N/A   Clear
1:15 PM 37.6 °F 28.8 °F 22.6 °F 55% 30.04 in 10.0 mi SSE 15.0 mph 20.7 mph N/A   Clear
1:35 PM 38.3 °F 30.5 °F 23.2 °F 55% 30.03 in 10.0 mi SSE 12.7 mph 18.4 mph N/A   Clear
1:55 PM 38.7 °F 29.8 °F 23.4 °F 54% 30.02 in 10.0 mi SSE 16.1 mph 21.9 mph N/A   Clear
2:15 PM 39.2 °F 30.8 °F 23.5 °F 53% 30.01 in 10.0 mi SSE 15.0 mph 23.0 mph N/A   Clear
2:35 PM 39.2 °F 31.2 °F 23.9 °F 54% 29.99 in 10.0 mi SE 13.8 mph 23.0 mph N/A   Clear
2:55 PM 39.2 °F 31.6 °F 23.9 °F 54% 29.98 in 10.0 mi SE 12.7 mph 21.9 mph N/A   Clear
3:15 PM 38.8 °F 31.2 °F 23.9 °F 55% 29.98 in 10.0 mi SE 12.7 mph 20.7 mph N/A   Clear
3:35 PM 38.8 °F 31.2 °F 24.4 °F 56% 29.97 in 10.0 mi SE 12.7 mph 19.6 mph N/A   Clear
3:55 PM 39.0 °F 31.4 °F 24.8 °F 57% 29.96 in 10.0 mi SE 12.7 mph 20.7 mph N/A   Clear
4:15 PM 38.8 °F 33.2 °F 25.2 °F 58% 29.96 in 10.0 mi SE 8.1 mph 19.6 mph N/A   Clear
4:35 PM 38.5 °F 29.6 °F 24.8 °F 58% 29.95 in 10.0 mi SE 16.1 mph 23.0 mph N/A   Clear
4:55 PM 38.3 °F 29.3 °F 24.4 °F 57% 29.94 in 10.0 mi SE 16.1 mph 21.9 mph N/A   Clear
5:15 PM 37.9 °F 29.6 °F 24.6 °F 59% 29.94 in 10.0 mi SE 13.8 mph 20.7 mph N/A   Clear
5:34 PM 37.9 °F 30.5 °F 24.8 °F 59% 29.94 in 10.0 mi SSE 11.5 mph 20.7 mph N/A   Clear
5:55 PM 37.8 °F 29.8 °F 25.2 °F 60% 29.94 in 10.0 mi SE 12.7 mph 19.6 mph N/A   Clear
6:15 PM 38.3 °F 30.5 °F 25.3 °F 60% 29.94 in 10.0 mi SSE 12.7 mph - N/A   Clear
6:34 PM 38.5 °F 29.9 °F 25.7 °F 60% 29.93 in 10.0 mi SSE 15.0 mph 21.9 mph N/A   Clear
6:55 PM 38.7 °F 29.5 °F 25.9 °F 60% 29.92 in 10.0 mi SSE 17.3 mph 24.2 mph N/A   Scattered Clouds
7:15 PM 38.7 °F 29.8 °F 26.1 °F 61% 29.91 in 10.0 mi SSE 16.1 mph 26.5 mph N/A   Clear
7:35 PM 38.5 °F 29.2 °F 26.2 °F 61% 29.91 in 10.0 mi SSE 17.3 mph 21.9 mph N/A   Clear
7:55 PM 38.7 °F 29.8 °F 26.4 °F 61% 29.91 in 10.0 mi SSE 16.1 mph 24.2 mph N/A   Clear
8:15 PM 38.5 °F 30.7 °F 26.6 °F 62% 29.91 in 10.0 mi SSE 12.7 mph 21.9 mph N/A   Clear
8:35 PM 38.7 °F 30.5 °F 27.1 °F 63% 29.90 in 10.0 mi SSE 13.8 mph - N/A   Clear
8:55 PM 40.1 °F 31.6 °F 27.5 °F 61% 29.90 in 10.0 mi SSE 16.1 mph 25.3 mph N/A   Clear
9:15 PM 40.6 °F 32.3 °F 27.5 °F 59% 29.91 in 10.0 mi South 16.1 mph 24.2 mph N/A   Mostly Cloudy
9:35 PM 40.8 °F 32.0 °F 27.9 °F 60% 29.91 in 10.0 mi SSE 18.4 mph 25.3 mph N/A   Overcast
9:55 PM 41.0 °F 32.2 °F 28.0 °F 60% 29.91 in 10.0 mi South 18.4 mph 25.3 mph N/A   Overcast
10:15 PM 41.0 °F 33.1 °F 27.9 °F 60% 29.91 in 10.0 mi SSE 15.0 mph 23.0 mph N/A   Overcast
10:35 PM 40.5 °F 32.5 °F 27.5 °F 60% 29.90 in 10.0 mi SSE 15.0 mph 25.3 mph N/A   Overcast
10:55 PM 40.6 °F 32.7 °F 27.5 °F 59% 29.90 in 10.0 mi SSE 15.0 mph 25.3 mph N/A   Overcast
11:15 PM 41.0 °F 33.5 °F 27.7 °F 59% 29.90 in 10.0 mi SSE 13.8 mph 20.7 mph N/A   Overcast
11:35 PM 41.4 °F 33.3 °F 27.5 °F 58% 29.90 in 10.0 mi SSE 16.1 mph 23.0 mph N/A   Overcast
11:55 PM 41.9 °F 34.0 °F 27.1 °F 56% 29.90 in 10.0 mi South 16.1 mph 20.7 mph N/A   Overcast